{"data":{"norad_id":40483,"epoch":"2026-09-20T06:00:02.000160Z","epoch_age_seconds":36260,"freshness":"FRESH","line1":"1 40483U 15011B   26263.25002315 -.00001960  00000+0  00000+0 0  9999","line2":"2 40483  72.8977 347.7190 8253594 169.3964 276.1379  0.28314050  1397","mean_motion":0.2831405,"eccentricity":0.8253594,"inclination_deg":72.8977,"raan_deg":347.719,"arg_perigee_deg":169.3964,"mean_anomaly_deg":276.1379,"bstar":0,"rev_number":139,"period_min":5085.8142865468,"perigee_km":10730.38107661,"apogee_km":172441.64655096,"semimajor_km":97964.150813786,"source":"CELESTRAK","updated_at":"2026-09-20T09:00:47.148922Z"}}